Flag for Angola

Past Weather in Cabinda, Angola — Yesterday and Last 2 Weeks

Now
73 °F

Partly cloudy.


Feels Like: 70 °F
Forecast: 79 / 72 °F
Wind: 3 mph from North

Location: Pointe Airport-Noire

Current Time: Jul 5, 2020 at 2:23:02 am

Latest Report: Jul 5, 2020 at 1:00 am


Visibility: N/A

Pressure: 29.89 "Hg

Humidity: 94%

Dew Point: 72 °F

Location of CabindaLocation

Past Weather in Cabinda — Graph

°F

Cabinda Temperature Yesterday

Maximum temperature yesterday: 81 °F (at 12:00 pm)
Minimum temperature yesterday: 72 °F (at 12:00 am)
Average temperature yesterday: 76 °F

High & Low Weather Summary for the Past Weeks

 TemperatureHumidityPressure
High82 °F (Jun 20, 1:00 pm)100% (Jun 20, 2:00 am)30.04 "Hg (Jun 20, 2:00 am)
Low68 °F (Jun 25, 4:00 am)58% (Jun 23, 1:00 pm)29.80 "Hg (Jun 23, 5:00 pm)
Average76 °F82%29.90 "Hg
* Reported Jun 20 12:00 am — Jul 5 12:00 am, Cabinda. Weather by CustomWeather, © 2020

Note: Actual official high and low records may vary slightly from our data, if they occured in-between our weather recording intervals... More about our weather records

Cabinda Weather History for the Previous 24 Hours

Scroll right to see more
 ConditionsComfort  
Time TempWeatherWind HumidityBarometerVisibility
12:00 am
Sun, Jul 5
73 °FPartly cloudy.3 mph94%29.89 "HgN/A
11:00 pm
Sat, Jul 4
73 °FPartly cloudy.2 mph94%29.89 "HgN/A
9:00 pm73 °FPartly cloudy.2 mph94%29.89 "HgN/A
8:00 pm75 °FPassing clouds.3 mph89%29.86 "HgN/A
7:00 pm75 °FPassing clouds.3 mph89%29.86 "HgN/A
6:00 pm77 °FScattered clouds.6 mph79%29.83 "HgN/A
5:00 pm77 °FScattered clouds.8 mph83%29.83 "HgN/A
4:00 pm79 °FScattered clouds.9 mph74%29.83 "HgN/A
3:00 pm81 °FScattered clouds.9 mph70%29.83 "HgN/A
2:00 pm81 °FScattered clouds.12 mph70%29.86 "HgN/A
1:00 pm81 °FPartly sunny.12 mph70%29.89 "HgN/A
12:00 pm81 °FBroken clouds.12 mph70%29.92 "HgN/A
11:00 am79 °FBroken clouds.9 mph79%29.92 "HgN/A
10:00 am77 °FScattered clouds.8 mph83%29.95 "HgN/A
9:00 am75 °FScattered clouds.5 mph89%29.92 "Hg4 mi
8:00 am73 °FFog.2 mph94%29.92 "Hg2 mi
7:00 am72 °FFog.3 mph100%29.89 "Hg3 mi
4:00 am72 °FFog.2 mph94%29.89 "Hg3 mi
2:00 am72 °FFog.2 mph94%29.89 "Hg3 mi
Weather by CustomWeather, © 2020

See weather overview